START_TIME,STEP,MOV.,H8,t_acc.,H43,t_acc.,M25,t_acc.,H9,t_acc.
1979-07-19 09:00:29.360 ,0,0,0.,12.0,0.,12.0,0.,12.0,0.,12.0
1979-07-19 09:00:41.360 ,0,0,0.,12.0,0.,12.0,0.,12.0,0.,12.0
1979-07-19 09:01:17.360 ,0,0,0.,12.0,0.,12.0,0.,12.0,0.,12.0
1979-07-19 09:01:29.360 ,0,0,0.,12.0,0.,12.0,0.,12.0,0.,12.0
1979-07-19 09:01:41.360 ,1,0,0.,12.0,0.,12.0,0.,12.0,0.,12.0
1979-07-19 09:01:53.360 ,1,0,0.,12.0,0.,12.0,0.,12.0,0.,12.0
1979-07-19 09:03:17.360 ,3,0,0.,12.0,0.,12.0,0.,12.0,0.,12.0
1979-07-19 09:03:29.360 ,3,0,0.,12.0,0.,12.0,0.,12.0,0.,12.0
1979-07-19 09:05:17.360 ,5,0,0.,12.0,0.,12.0,0.,12.0,0.,12.0
1979-07-19 09:05:29.360 ,5,0,0.,12.0,0.,12.0,0.,12.0,0.,12.0
1979-07-19 09:07:17.360 ,3,1,0.,12.0,0.,12.0,0.,12.0,0.,12.0
1979-07-19 09:07:29.360 ,3,1,0.,12.0,0.,12.0,0.,12.0,0.,12.0
1979-07-19 09:08:53.360 ,3,1,0.,12.0,0.,12.0,0.,12.0,0.,12.0
1979-07-19 09:09:05.360 ,3,1,0.,12.0,0.,12.0,0.,12.0,0.,12.0
1979-07-19 09:09:17.360 ,0,1,0.,12.0,0.,12.0,0.,12.0,0.,12.0
1979-07-19 09:09:29.360 ,0,1,0.,12.0,0.,12.0,0.,12.0,0.,12.0
1979-07-19 09:09:41.360 ,4,1,0.,12.0,0.,12.0,0.,12.0,0.,12.0
1979-07-19 09:09:53.360 ,4,1,0.,12.0,0.,12.0,0.,12.0,0.,12.0
1979-07-19 09:10:53.360 ,0,1,0.,12.0,0.,12.0,0.,12.0,0.,12.0
1979-07-19 09:11:05.360 ,0,1,0.,12.0,0.,12.0,0.,12.0,0.,12.0
1979-07-19 09:11:17.360 ,4,1,0.,12.0,0.,12.0,0.,12.0,0.,12.0
1979-07-19 09:11:29.360 ,4,1,0.,12.0,0.,12.0,0.,12.0,0.,12.0
1979-07-19 09:12:53.360 ,4,1,0.,12.0,0.,12.0,0.,12.0,0.,12.0
1979-07-19 09:13:05.360 ,4,1,0.,12.0,0.,12.0,0.,12.0,0.,12.0
1979-07-19 09:13:17.360 ,7,1,0.,12.0,0.,12.0,0.,12.0,0.,12.0
1979-07-19 09:13:29.360 ,7,1,0.,12.0,0.,12.0,0.,12.0,0.,12.0
1979-07-19 09:14:53.360 ,7,1,0.,12.0,0.,12.0,0.,12.0,0.,12.0
1979-07-19 09:15:05.360 ,7,1,0.,12.0,0.,12.0,0.,12.0,0.,12.0
1979-07-19 09:15:17.360 ,3,1,0.,12.0,0.,12.0,0.,12.0,0.,12.0
1979-07-19 09:15:29.360 ,3,1,0.,12.0,0.,12.0,0.,12.0,0.,12.0
1979-07-19 09:16:53.360 ,3,1,0.,12.0,0.,12.0,0.,12.0,0.,12.0
1979-07-19 09:17:05.360 ,3,1,0.,12.0,0.,12.0,0.,12.0,0.,12.0
1979-07-19 09:18:53.360 ,5,0,0.,12.0,0.,12.0,0.,12.0,0.,12.0
1979-07-19 09:19:05.360 ,5,0,0.,12.0,0.,12.0,0.,12.0,0.,12.0
1979-07-19 09:20:29.360 ,3,0,0.,12.0,0.,12.0,0.,12.0,0.,12.0
1979-07-19 09:20:41.360 ,3,0,0.,12.0,0.,12.0,0.,12.0,0.,12.0
1979-07-19 09:20:53.360 ,2,0,0.,12.0,0.,12.0,0.,12.0,0.,12.0
1979-07-19 09:21:05.360 ,2,0,0.,12.0,0.,12.0,0.,12.0,0.,12.0
1979-07-19 09:22:29.360 ,0,0,0.,12.0,0.,12.0,0.,12.0,0.,12.0
1979-07-19 09:22:41.360 ,0,0,0.,12.0,0.,12.0,0.,12.0,0.,12.0
1979-07-19 09:22:53.360 ,0,0,0.,12.0,0.,12.0,0.,12.0,0.,12.0
1979-07-19 09:23:05.360 ,0,0,0.,12.0,0.,12.0,0.,12.0,0.,12.0
1979-07-19 09:24:05.360 ,1,0,0.,12.0,0.,12.0,0.,12.0,0.,12.0
1979-07-19 09:24:17.360 ,1,0,0.,12.0,0.,12.0,0.,12.0,0.,12.0
1979-07-19 09:24:29.360 ,1,0,0.,12.0,0.,12.0,0.,12.0,0.,12.0
1979-07-19 09:24:41.360 ,1,0,0.,12.0,0.,12.0,0.,12.0,0.,12.0
1979-07-19 09:26:05.360 ,3,0,0.,12.0,0.,12.0,0.,12.0,0.,12.0
1979-07-19 09:26:17.360 ,3,0,0.,12.0,0.,12.0,0.,12.0,0.,12.0
1979-07-19 09:26:29.360 ,4,0,0.,12.0,0.,12.0,0.,12.0,0.,12.0
1979-07-19 09:26:41.360 ,4,0,0.,12.0,0.,12.0,0.,12.0,0.,12.0
1979-07-19 09:27:41.360 ,5,0,0.,12.0,0.,12.0,0.,12.0,0.,12.0
1979-07-19 09:27:53.360 ,5,0,0.,12.0,0.,12.0,0.,12.0,0.,12.0
1979-07-19 09:28:29.360 ,6,0,0.,12.0,0.,12.0,0.,12.0,0.,12.0
1979-07-19 09:28:41.360 ,6,0,0.,12.0,0.,12.0,0.,12.0,0.,12.0
1979-07-19 09:28:53.360 ,7,0,0.,12.0,0.,12.0,0.,12.0,0.,12.0
1979-07-19 09:29:05.360 ,7,0,0.,12.0,0.,12.0,0.,12.0,0.,12.0
1979-07-19 09:29:17.360 ,7,0,0.,12.0,0.,12.0,0.,12.0,0.,12.0
1979-07-19 09:29:29.360 ,7,0,0.,12.0,0.,12.0,0.,12.0,0.,12.0
1979-07-19 09:30:05.360 ,7,0,0.,12.0,0.,12.0,0.,12.0,0.,12.0
1979-07-19 09:30:17.360 ,7,0,0.,12.0,0.,12.0,0.,12.0,0.,12.0
1979-07-19 09:30:29.360 ,6,0,0.,12.0,0.,12.0,0.,12.0,0.,12.0
1979-07-19 09:30:41.360 ,6,0,0.,12.0,0.,12.0,0.,12.0,0.,12.0
1979-07-19 09:30:53.360 ,6,0,0.,12.0,0.,12.0,0.,12.0,0.,12.0
1979-07-19 09:31:05.360 ,6,0,0.,12.0,0.,12.0,0.,12.0,0.,12.0
1979-07-19 09:32:05.360 ,4,0,0.,12.0,0.,12.0,0.,12.0,0.,12.0
1979-07-19 09:32:17.360 ,4,0,0.,12.0,0.,12.0,0.,12.0,0.,12.0
1979-07-19 09:34:05.360 ,2,0,0.,12.0,0.,12.0,0.,12.0,0.,12.0
1979-07-19 09:34:17.360 ,2,0,0.,12.0,0.,12.0,0.,12.0,0.,12.0
1979-07-19 09:34:29.360 ,1,0,0.,12.0,0.,12.0,0.,12.0,0.,12.0
1979-07-19 09:34:41.360 ,1,0,0.,12.0,0.,12.0,0.,12.0,0.,12.0
1979-07-19 09:36:05.360 ,0,0,0.,12.0,0.,12.0,0.,12.0,0.,12.0
1979-07-19 09:36:17.360 ,0,0,0.,12.0,0.,12.0,0.,12.0,0.,12.0
1979-07-19 09:36:29.360 ,0,0,0.,12.0,0.,12.0,0.,12.0,0.,12.0
1979-07-19 09:36:41.360 ,0,0,0.,12.0,0.,12.0,0.,12.0,0.,12.0
1979-07-19 09:37:41.360 ,2,0,0.,12.0,0.,12.0,0.,12.0,0.,12.0
1979-07-19 09:37:53.360 ,2,0,0.,12.0,0.,12.0,0.,12.0,0.,12.0
1979-07-19 09:38:05.360 ,2,0,0.,12.0,0.,12.0,0.,12.0,0.,12.0
1979-07-19 09:38:17.360 ,2,0,0.,12.0,0.,12.0,0.,12.0,0.,12.0
1979-07-19 09:39:17.360 ,4,0,0.,12.0,0.,12.0,0.,12.0,0.,12.0
1979-07-19 09:39:29.360 ,4,0,0.,12.0,0.,12.0,0.,12.0,0.,12.0
1979-07-19 09:39:41.360 ,4,0,0.,12.0,0.,12.0,0.,12.0,0.,12.0
1979-07-19 09:39:53.360 ,4,0,0.,12.0,0.,12.0,0.,12.0,0.,12.0
1979-07-19 09:41:17.360 ,6,0,1.,12.0,0.,12.0,0.,12.0,0.,12.0
1979-07-19 09:41:29.360 ,6,0,0.,12.0,0.,12.0,0.,12.0,0.,12.0
1979-07-19 09:41:41.360 ,7,0,0.,12.0,0.,12.0,0.,12.0,0.,12.0
1979-07-19 09:41:53.360 ,7,0,0.,12.0,0.,12.0,0.,12.0,0.,12.0
1979-07-19 09:43:41.360 ,6,0,0.,12.0,0.,12.0,0.,12.0,0.,12.0
1979-07-19 09:43:53.360 ,6,0,0.,12.0,0.,12.0,0.,12.0,0.,12.0
1979-07-19 09:44:05.360 ,5,0,0.,12.0,0.,12.0,0.,12.0,0.,12.0
1979-07-19 09:44:17.360 ,5,0,0.,12.0,0.,12.0,0.,12.0,0.,12.0
1979-07-19 09:44:29.360 ,5,0,0.,12.0,0.,12.0,0.,12.0,0.,12.0
1979-07-19 09:44:41.360 ,5,0,0.,12.0,0.,12.0,0.,12.0,0.,12.0
1979-07-19 09:44:53.360 ,4,0,0.,12.0,0.,12.0,0.,12.0,0.,12.0
1979-07-19 09:45:05.360 ,4,0,0.,12.0,0.,12.0,0.,12.0,0.,12.0
1979-07-19 09:45:17.360 ,4,0,0.,12.0,0.,12.0,0.,12.0,0.,12.0
1979-07-19 09:45:29.360 ,4,0,1.,12.0,0.,12.0,0.,12.0,0.,12.0
1979-07-19 09:45:41.360 ,3,0,0.,12.0,0.,12.0,0.,12.0,0.,12.0
1979-07-19 09:45:53.360 ,3,0,0.,12.0,0.,12.0,0.,12.0,0.,12.0
1979-07-19 09:46:05.360 ,3,0,0.,12.0,0.,12.0,0.,12.0,0.,12.0
1979-07-19 09:46:17.360 ,3,0,1.,12.0,0.,12.0,0.,12.0,0.,12.0
1979-07-19 09:46:53.360 ,2,0,0.,12.0,0.,12.0,0.,12.0,0.,12.0
1979-07-19 09:47:05.360 ,2,0,0.,12.0,0.,12.0,0.,12.0,0.,12.0
1979-07-19 09:47:17.360 ,1,0,0.,12.0,0.,12.0,0.,12.0,0.,12.0
1979-07-19 09:47:29.360 ,1,0,0.,12.0,0.,12.0,0.,12.0,0.,12.0
1979-07-19 09:48:29.360 ,0,0,0.,12.0,0.,12.0,0.,12.0,0.,12.0
1979-07-19 09:48:41.360 ,0,0,0.,12.0,0.,12.0,0.,12.0,0.,12.0
1979-07-19 09:48:53.360 ,0,0,0.,12.0,0.,12.0,0.,12.0,0.,12.0
1979-07-19 09:49:05.360 ,0,0,0.,12.0,0.,12.0,0.,12.0,0.,12.0
1979-07-19 09:49:17.360 ,0,0,0.,12.0,0.,12.0,0.,12.0,0.,12.0
1979-07-19 09:49:29.360 ,0,0,0.,12.0,0.,12.0,0.,12.0,0.,12.0
1979-07-19 09:49:41.360 ,1,0,0.,12.0,0.,12.0,0.,12.0,0.,12.0
1979-07-19 09:49:53.360 ,1,0,0.,12.0,0.,12.0,0.,12.0,0.,12.0
1979-07-19 09:50:05.360 ,1,0,0.,12.0,0.,12.0,0.,12.0,0.,12.0
1979-07-19 09:50:17.360 ,1,0,0.,12.0,0.,12.0,0.,12.0,0.,12.0
1979-07-19 09:50:29.360 ,2,0,0.,12.0,0.,12.0,0.,12.0,0.,12.0
1979-07-19 09:50:41.360 ,2,0,0.,12.0,0.,12.0,0.,12.0,0.,12.0
1979-07-19 09:50:53.360 ,2,0,0.,12.0,0.,12.0,0.,12.0,0.,12.0
1979-07-19 09:51:05.360 ,2,0,0.,12.0,0.,12.0,0.,12.0,0.,12.0
1979-07-19 09:51:17.360 ,3,0,0.,12.0,0.,12.0,0.,12.0,0.,12.0
1979-07-19 09:51:29.360 ,3,0,0.,12.0,0.,12.0,0.,12.0,0.,12.0
1979-07-19 09:51:41.360 ,3,0,0.,12.0,0.,12.0,0.,12.0,0.,12.0
1979-07-19 09:51:53.360 ,3,0,0.,12.0,0.,12.0,0.,12.0,0.,12.0
1979-07-19 09:52:05.360 ,4,0,1.,12.0,0.,12.0,0.,12.0,0.,12.0
1979-07-19 09:52:17.360 ,4,0,0.,12.0,0.,12.0,0.,12.0,0.,12.0
1979-07-19 09:52:29.360 ,4,0,0.,12.0,0.,12.0,0.,12.0,0.,12.0
1979-07-19 09:52:41.360 ,4,0,0.,12.0,0.,12.0,0.,12.0,0.,12.0
1979-07-19 09:52:53.360 ,5,0,0.,12.0,0.,12.0,0.,12.0,0.,12.0
1979-07-19 09:53:05.360 ,5,0,1.,12.0,0.,12.0,0.,12.0,0.,12.0
1979-07-19 09:53:17.360 ,5,0,0.,12.0,0.,12.0,0.,12.0,0.,12.0
1979-07-19 09:53:29.360 ,5,0,0.,12.0,0.,12.0,0.,12.0,0.,12.0
1979-07-19 09:53:41.360 ,6,0,0.,12.0,0.,12.0,0.,12.0,0.,12.0
1979-07-19 09:53:53.360 ,6,0,0.,12.0,0.,12.0,0.,12.0,0.,12.0
1979-07-19 09:54:05.360 ,6,0,0.,12.0,0.,12.0,0.,12.0,0.,12.0
1979-07-19 09:54:17.360 ,6,0,0.,12.0,0.,12.0,0.,12.0,0.,12.0
1979-07-19 09:54:29.360 ,7,0,0.,12.0,0.,12.0,0.,12.0,0.,12.0
1979-07-19 09:54:41.360 ,7,0,0.,12.0,0.,12.0,0.,12.0,0.,12.0
1979-07-19 09:54:53.360 ,7,0,0.,12.0,0.,12.0,0.,12.0,0.,12.0
1979-07-19 09:55:05.360 ,7,0,0.,12.0,0.,12.0,0.,12.0,0.,12.0
1979-07-19 09:55:17.360 ,3,1,0.,12.0,0.,12.0,0.,12.0,0.,12.0
1979-07-19 09:55:29.360 ,3,1,0.,12.0,0.,12.0,0.,12.0,0.,12.0
1979-07-19 09:55:41.360 ,0,1,0.,12.0,0.,12.0,0.,12.0,0.,12.0
1979-07-19 09:55:53.360 ,0,1,0.,12.0,0.,12.0,0.,12.0,0.,12.0
1979-07-19 09:56:05.360 ,4,1,0.,12.0,0.,12.0,0.,12.0,0.,12.0
1979-07-19 09:56:17.360 ,4,1,0.,12.0,0.,12.0,0.,12.0,0.,12.0
1979-07-19 09:56:29.360 ,7,1,0.,12.0,0.,12.0,0.,12.0,0.,12.0
1979-07-19 09:56:41.360 ,7,1,0.,12.0,0.,12.0,0.,12.0,0.,12.0
1979-07-19 09:56:53.360 ,3,1,0.,12.0,0.,12.0,0.,12.0,0.,12.0
1979-07-19 09:57:05.360 ,3,1,0.,12.0,0.,12.0,0.,12.0,0.,12.0
1979-07-19 09:57:17.360 ,0,1,0.,12.0,0.,12.0,0.,12.0,0.,12.0
1979-07-19 09:57:29.360 ,0,1,0.,12.0,0.,12.0,0.,12.0,0.,12.0
1979-07-19 09:57:41.360 ,4,1,0.,12.0,0.,12.0,0.,12.0,0.,12.0
1979-07-19 09:57:53.360 ,4,1,0.,12.0,0.,12.0,0.,12.0,0.,12.0
1979-07-19 09:58:05.360 ,7,1,0.,12.0,0.,12.0,0.,12.0,0.,12.0
1979-07-19 09:58:17.360 ,7,1,0.,12.0,0.,12.0,0.,12.0,0.,12.0
1979-07-19 09:58:29.360 ,3,1,0.,12.0,0.,12.0,0.,12.0,0.,12.0
1979-07-19 09:58:41.360 ,3,1,0.,12.0,0.,12.0,0.,12.0,0.,12.0
1979-07-19 09:58:53.360 ,0,1,0.,12.0,0.,12.0,0.,12.0,0.,12.0
1979-07-19 09:59:05.360 ,0,1,0.,12.0,0.,12.0,0.,12.0,0.,12.0
1979-07-19 09:59:17.360 ,4,1,0.,12.0,0.,12.0,0.,12.0,0.,12.0
1979-07-19 09:59:29.360 ,4,1,0.,12.0,0.,12.0,0.,12.0,0.,12.0
1979-07-19 09:59:41.360 ,7,1,0.,12.0,0.,12.0,0.,12.0,0.,12.0
1979-07-19 09:59:53.360 ,7,1,0.,12.0,0.,12.0,0.,12.0,0.,12.0
1979-07-19 10:00:05.360 ,3,1,0.,12.0,0.,12.0,0.,12.0,0.,12.0
1979-07-19 10:00:17.360 ,3,1,0.,12.0,0.,12.0,0.,12.0,0.,12.0
1979-07-19 10:00:29.360 ,0,1,0.,12.0,0.,12.0,0.,12.0,0.,12.0
1979-07-19 10:00:41.360 ,0,1,0.,12.0,0.,12.0,0.,12.0,0.,12.0
1979-07-19 10:00:53.360 ,4,1,0.,12.0,0.,12.0,0.,12.0,0.,12.0
1979-07-19 10:01:05.360 ,4,1,0.,12.0,0.,12.0,0.,12.0,0.,12.0
1979-07-19 10:01:17.360 ,7,1,0.,12.0,0.,12.0,0.,12.0,0.,12.0
1979-07-19 10:01:29.360 ,7,1,0.,12.0,0.,12.0,0.,12.0,0.,12.0
1979-07-19 10:01:41.360 ,3,1,0.,12.0,0.,12.0,0.,12.0,0.,12.0
1979-07-19 10:01:53.360 ,3,1,0.,12.0,0.,12.0,0.,12.0,0.,12.0
1979-07-19 10:02:05.360 ,0,1,0.,12.0,0.,12.0,0.,12.0,0.,12.0
1979-07-19 10:02:17.360 ,0,1,0.,12.0,0.,12.0,0.,12.0,0.,12.0
1979-07-19 10:02:29.350 ,4,1,0.,12.0,0.,12.0,0.,12.0,0.,12.0
1979-07-19 10:02:41.360 ,4,1,0.,12.0,0.,12.0,0.,12.0,0.,12.0
1979-07-19 10:02:53.350 ,7,1,0.,12.0,0.,12.0,0.,12.0,0.,12.0
1979-07-19 10:03:05.350 ,7,1,0.,12.0,0.,12.0,0.,12.0,0.,12.0
1979-07-19 10:03:17.350 ,3,1,0.,12.0,0.,12.0,0.,12.0,0.,12.0
1979-07-19 10:03:29.360 ,3,1,0.,12.0,0.,12.0,0.,12.0,0.,12.0
1979-07-19 10:03:41.350 ,0,1,0.,12.0,0.,12.0,0.,12.0,0.,12.0
1979-07-19 10:03:53.360 ,0,1,0.,12.0,0.,12.0,0.,12.0,0.,12.0
1979-07-19 10:04:05.350 ,4,1,0.,12.0,0.,12.0,0.,12.0,0.,12.0
1979-07-19 10:04:17.360 ,4,1,0.,12.0,0.,12.0,0.,12.0,0.,12.0
1979-07-19 10:04:29.360 ,7,1,0.,12.0,0.,12.0,0.,12.0,0.,12.0
1979-07-19 10:04:41.360 ,7,1,0.,12.0,0.,12.0,0.,12.0,0.,12.0
1979-07-19 10:04:53.360 ,3,1,0.,12.0,0.,12.0,0.,12.0,0.,12.0
1979-07-19 10:05:05.360 ,3,1,0.,12.0,0.,12.0,0.,12.0,0.,12.0
1979-07-19 10:05:17.360 ,0,1,0.,12.0,0.,12.0,0.,12.0,0.,12.0
1979-07-19 10:05:29.360 ,0,1,0.,12.0,0.,12.0,0.,12.0,0.,12.0
1979-07-19 10:05:41.360 ,0,0,0.,12.0,0.,12.0,0.,12.0,0.,12.0
1979-07-19 10:05:53.360 ,0,0,0.,12.0,0.,12.0,0.,12.0,0.,12.0
1979-07-19 10:06:05.360 ,0,0,0.,12.0,0.,12.0,0.,12.0,0.,12.0
1979-07-19 10:06:17.360 ,0,0,0.,12.0,0.,12.0,0.,12.0,0.,12.0
1979-07-19 10:06:29.950 ,7,0,0.,12.0,0.,12.0,0.,12.0,0.,12.0
1979-07-19 10:06:41.950 ,7,0,0.,12.0,0.,12.0,0.,12.0,0.,12.0
1979-07-19 10:06:53.360 ,7,0,0.,12.0,0.,12.0,0.,12.0,0.,12.0
1979-07-19 10:07:05.360 ,7,0,0.,12.0,0.,12.0,0.,12.0,0.,12.0
1979-07-19 10:07:17.360 ,4,0,0.,12.0,0.,12.0,0.,12.0,0.,12.0
1979-07-19 10:07:29.360 ,4,0,0.,12.0,0.,12.0,0.,12.0,0.,12.0
1979-07-19 10:07:41.360 ,4,0,0.,12.0,0.,12.0,0.,12.0,0.,12.0
1979-07-19 10:07:53.360 ,4,0,0.,12.0,0.,12.0,0.,12.0,0.,12.0
1979-07-19 10:08:05.360 ,3,0,0.,12.0,0.,12.0,0.,12.0,0.,12.0
1979-07-19 10:08:17.360 ,3,0,0.,12.0,0.,12.0,0.,12.0,0.,12.0
1979-07-19 10:08:29.360 ,3,0,0.,12.0,0.,12.0,0.,12.0,0.,12.0
1979-07-19 10:08:41.360 ,3,0,0.,12.0,0.,12.0,0.,12.0,0.,12.0
1979-07-19 10:08:53.350 ,2,0,0.,12.0,0.,12.0,0.,12.0,0.,12.0
1979-07-19 10:09:05.350 ,2,0,0.,12.0,0.,12.0,0.,12.0,0.,12.0
1979-07-19 10:09:17.350 ,2,0,0.,12.0,0.,12.0,0.,12.0,0.,12.0
1979-07-19 10:09:29.350 ,2,0,0.,12.0,0.,12.0,0.,12.0,0.,12.0
1979-07-19 10:09:41.350 ,1,0,0.,12.0,0.,12.0,0.,12.0,0.,12.0
1979-07-19 10:09:53.350 ,1,0,0.,12.0,0.,12.0,0.,12.0,0.,12.0
1979-07-19 10:10:05.350 ,1,0,0.,12.0,0.,12.0,0.,12.0,0.,12.0
1979-07-19 10:10:17.350 ,1,0,0.,12.0,0.,12.0,0.,12.0,0.,12.0
1979-07-19 10:10:29.350 ,0,0,0.,12.0,0.,12.0,0.,12.0,0.,12.0
1979-07-19 10:10:41.350 ,0,0,0.,12.0,0.,12.0,0.,12.0,0.,12.0
1979-07-19 10:10:53.350 ,0,0,0.,12.0,0.,12.0,0.,12.0,0.,12.0
1979-07-19 10:11:05.350 ,0,0,0.,12.0,0.,12.0,0.,12.0,0.,12.0
1979-07-19 10:11:17.350 ,0,0,0.,12.0,0.,12.0,0.,12.0,0.,12.0
1979-07-19 10:11:29.350 ,0,0,0.,12.0,0.,12.0,0.,12.0,0.,12.0
1979-07-19 10:11:41.350 ,0,0,0.,12.0,0.,12.0,0.,12.0,0.,12.0
1979-07-19 10:11:53.350 ,0,0,0.,12.0,0.,12.0,0.,12.0,0.,12.0
1979-07-19 10:12:05.350 ,1,0,0.,12.0,0.,12.0,0.,12.0,0.,12.0
1979-07-19 10:12:17.350 ,1,0,0.,12.0,0.,12.0,0.,12.0,0.,12.0
1979-07-19 10:12:29.350 ,1,0,0.,12.0,0.,12.0,0.,12.0,0.,12.0
1979-07-19 10:12:41.350 ,1,0,0.,12.0,0.,12.0,0.,12.0,0.,12.0
1979-07-19 10:12:53.350 ,2,0,0.,12.0,0.,12.0,0.,12.0,0.,12.0
1979-07-19 10:13:05.350 ,2,0,0.,12.0,0.,12.0,0.,12.0,0.,12.0
1979-07-19 10:13:17.350 ,2,0,0.,12.0,0.,12.0,0.,12.0,0.,12.0
1979-07-19 10:13:29.350 ,2,0,0.,12.0,0.,12.0,0.,12.0,0.,12.0
1979-07-19 10:13:41.350 ,3,0,0.,12.0,0.,12.0,0.,12.0,0.,12.0
1979-07-19 10:13:53.350 ,3,0,0.,12.0,0.,12.0,0.,12.0,0.,12.0
1979-07-19 10:14:05.350 ,3,0,0.,12.0,0.,12.0,0.,12.0,0.,12.0
1979-07-19 10:14:17.350 ,3,0,0.,12.0,0.,12.0,0.,12.0,0.,12.0
1979-07-19 10:14:29.350 ,4,0,0.,12.0,0.,12.0,0.,12.0,0.,12.0
1979-07-19 10:14:41.350 ,4,0,0.,12.0,0.,12.0,0.,12.0,0.,12.0
1979-07-19 10:14:53.350 ,4,0,0.,12.0,0.,12.0,0.,12.0,0.,12.0
1979-07-19 10:15:05.350 ,4,0,0.,12.0,0.,12.0,0.,12.0,0.,12.0
1979-07-19 10:15:17.350 ,5,0,0.,12.0,0.,12.0,0.,12.0,0.,12.0
1979-07-19 10:15:29.350 ,5,0,0.,12.0,0.,12.0,0.,12.0,0.,12.0
1979-07-19 10:15:41.350 ,5,0,0.,12.0,0.,12.0,0.,12.0,0.,12.0
1979-07-19 10:15:53.350 ,5,0,0.,12.0,0.,12.0,0.,12.0,0.,12.0
1979-07-19 10:16:05.350 ,6,0,0.,12.0,0.,12.0,0.,12.0,0.,12.0
1979-07-19 10:16:17.350 ,6,0,0.,12.0,0.,12.0,0.,12.0,0.,12.0
1979-07-19 10:16:29.350 ,6,0,0.,12.0,0.,12.0,0.,12.0,0.,12.0
1979-07-19 10:16:41.350 ,6,0,0.,12.0,0.,12.0,0.,12.0,0.,12.0
1979-07-19 10:16:53.350 ,7,0,0.,12.0,0.,12.0,0.,12.0,0.,12.0
1979-07-19 10:17:05.350 ,7,0,0.,12.0,0.,12.0,0.,12.0,0.,12.0
1979-07-19 10:17:17.350 ,7,0,0.,12.0,0.,12.0,0.,12.0,0.,12.0
1979-07-19 10:17:29.350 ,7,0,0.,12.0,0.,12.0,0.,12.0,0.,12.0
1979-07-19 10:17:41.350 ,7,0,0.,12.0,0.,12.0,0.,12.0,0.,12.0
1979-07-19 10:17:53.350 ,7,0,0.,12.0,0.,12.0,0.,12.0,0.,12.0
1979-07-19 10:18:05.350 ,7,0,0.,12.0,0.,12.0,0.,12.0,0.,12.0
1979-07-19 10:18:17.350 ,7,0,0.,12.0,0.,12.0,0.,12.0,0.,12.0
1979-07-19 10:18:29.350 ,6,0,0.,12.0,0.,12.0,0.,12.0,0.,12.0
1979-07-19 10:18:41.350 ,6,0,0.,12.0,0.,12.0,0.,12.0,0.,12.0
1979-07-19 10:18:53.350 ,6,0,0.,12.0,0.,12.0,0.,12.0,0.,12.0
1979-07-19 10:19:05.350 ,6,0,0.,12.0,0.,12.0,0.,12.0,0.,12.0
1979-07-19 10:19:17.350 ,5,0,0.,12.0,0.,12.0,0.,12.0,0.,12.0
1979-07-19 10:19:29.350 ,5,0,0.,12.0,0.,12.0,0.,12.0,0.,12.0
1979-07-19 10:19:41.350 ,5,0,0.,12.0,0.,12.0,0.,12.0,0.,12.0
1979-07-19 10:19:53.350 ,5,0,0.,12.0,0.,12.0,0.,12.0,0.,12.0
1979-07-19 10:20:05.350 ,4,0,0.,12.0,0.,12.0,0.,12.0,0.,12.0
1979-07-19 10:20:17.350 ,4,0,0.,12.0,0.,12.0,0.,12.0,0.,12.0
1979-07-19 10:20:29.350 ,4,0,0.,12.0,0.,12.0,0.,12.0,0.,12.0
1979-07-19 10:20:41.350 ,4,0,0.,12.0,0.,12.0,0.,12.0,0.,12.0
1979-07-19 10:20:53.350 ,3,0,0.,12.0,0.,12.0,0.,12.0,0.,12.0
1979-07-19 10:21:05.350 ,3,0,0.,12.0,0.,12.0,0.,12.0,0.,12.0
1979-07-19 10:21:17.350 ,3,0,0.,12.0,0.,12.0,0.,12.0,0.,12.0
1979-07-19 10:21:29.350 ,3,0,0.,12.0,0.,12.0,0.,12.0,0.,12.0
1979-07-19 10:21:41.350 ,2,0,0.,12.0,0.,12.0,0.,12.0,0.,12.0
1979-07-19 10:21:53.350 ,2,0,0.,12.0,0.,12.0,0.,12.0,0.,12.0
1979-07-19 10:22:05.350 ,2,0,0.,12.0,0.,12.0,0.,12.0,0.,12.0
1979-07-19 10:22:17.350 ,2,0,0.,12.0,0.,12.0,0.,12.0,0.,12.0
1979-07-19 10:22:29.350 ,1,0,0.,12.0,0.,12.0,0.,12.0,0.,12.0
1979-07-19 10:22:41.350 ,1,0,0.,12.0,0.,12.0,0.,12.0,0.,12.0
1979-07-19 10:22:53.350 ,1,0,0.,12.0,0.,12.0,0.,12.0,0.,12.0
1979-07-19 10:23:05.350 ,1,0,0.,12.0,0.,12.0,0.,12.0,0.,12.0
1979-07-19 10:23:17.350 ,0,0,0.,12.0,0.,12.0,0.,12.0,0.,12.0
1979-07-19 10:23:29.350 ,0,0,0.,12.0,0.,12.0,0.,12.0,0.,12.0
1979-07-19 10:23:41.350 ,0,0,0.,12.0,0.,12.0,0.,12.0,0.,12.0
1979-07-19 10:23:53.350 ,0,0,0.,12.0,0.,12.0,0.,12.0,0.,12.0
1979-07-19 10:24:05.350 ,0,0,0.,12.0,0.,12.0,0.,12.0,0.,12.0
1979-07-19 10:24:17.350 ,0,0,1.,12.0,0.,12.0,0.,12.0,0.,12.0
1979-07-19 10:24:29.350 ,0,0,0.,12.0,0.,12.0,0.,12.0,0.,12.0
1979-07-19 10:24:41.350 ,0,0,0.,12.0,0.,12.0,0.,12.0,0.,12.0
1979-07-19 10:24:53.350 ,1,0,0.,12.0,0.,12.0,0.,12.0,0.,12.0
1979-07-19 10:25:05.350 ,1,0,0.,12.0,0.,12.0,0.,12.0,0.,12.0
1979-07-19 10:25:17.350 ,1,0,0.,12.0,0.,12.0,0.,12.0,0.,12.0
1979-07-19 10:25:29.350 ,1,0,0.,12.0,0.,12.0,0.,12.0,0.,12.0
1979-07-19 10:25:41.350 ,2,0,0.,12.0,0.,12.0,0.,12.0,0.,12.0
1979-07-19 10:25:53.350 ,2,0,0.,12.0,0.,12.0,0.,12.0,0.,12.0
1979-07-19 10:26:05.350 ,2,0,0.,12.0,0.,12.0,0.,12.0,0.,12.0
1979-07-19 10:26:17.350 ,2,0,0.,12.0,0.,12.0,0.,12.0,0.,12.0
1979-07-19 10:26:29.350 ,3,0,1.,12.0,0.,12.0,0.,12.0,0.,12.0
1979-07-19 10:26:41.350 ,3,0,0.,12.0,0.,12.0,0.,12.0,0.,12.0
1979-07-19 10:26:53.350 ,3,0,0.,12.0,0.,12.0,0.,12.0,0.,12.0
1979-07-19 10:27:05.350 ,3,0,0.,12.0,0.,12.0,0.,12.0,0.,12.0
1979-07-19 10:27:17.350 ,4,0,0.,12.0,0.,12.0,0.,12.0,0.,12.0
1979-07-19 10:27:29.350 ,4,0,0.,12.0,0.,12.0,0.,12.0,0.,12.0
1979-07-19 10:27:41.350 ,4,0,0.,12.0,0.,12.0,0.,12.0,0.,12.0
1979-07-19 10:27:53.350 ,4,0,0.,12.0,0.,12.0,0.,12.0,0.,12.0
1979-07-19 10:28:05.350 ,5,0,0.,12.0,0.,12.0,0.,12.0,0.,12.0
1979-07-19 10:28:17.350 ,5,0,0.,12.0,0.,12.0,0.,12.0,0.,12.0
1979-07-19 10:28:29.350 ,5,0,0.,12.0,0.,12.0,0.,12.0,0.,12.0
1979-07-19 10:28:41.350 ,5,0,1.,12.0,0.,12.0,0.,12.0,0.,12.0
1979-07-19 10:28:53.350 ,6,0,0.,12.0,0.,12.0,0.,12.0,0.,12.0
1979-07-19 10:29:05.350 ,6,0,0.,12.0,0.,12.0,0.,12.0,0.,12.0
1979-07-19 10:29:17.350 ,6,0,0.,12.0,0.,12.0,0.,12.0,0.,12.0
1979-07-19 10:29:29.350 ,6,0,0.,12.0,0.,12.0,0.,12.0,0.,12.0
1979-07-19 10:29:41.350 ,7,0,0.,12.0,0.,12.0,0.,12.0,0.,12.0
1979-07-19 10:29:53.350 ,7,0,0.,12.0,0.,12.0,0.,12.0,0.,12.0
1979-07-19 10:30:05.350 ,7,0,0.,12.0,0.,12.0,0.,12.0,0.,12.0
1979-07-19 10:30:17.350 ,7,0,0.,12.0,0.,12.0,0.,12.0,0.,12.0
1979-07-19 10:30:29.350 ,7,0,0.,12.0,0.,12.0,0.,12.0,0.,12.0
1979-07-19 10:30:41.350 ,7,0,0.,12.0,0.,12.0,0.,12.0,0.,12.0
1979-07-19 10:30:53.350 ,7,0,0.,12.0,0.,12.0,0.,12.0,0.,12.0
1979-07-19 10:31:05.350 ,7,0,0.,12.0,0.,12.0,0.,12.0,0.,12.0
1979-07-19 10:31:17.350 ,6,0,0.,12.0,0.,12.0,0.,12.0,0.,12.0
1979-07-19 10:31:29.350 ,6,0,0.,12.0,0.,12.0,0.,12.0,0.,12.0
1979-07-19 10:31:41.350 ,6,0,0.,12.0,0.,12.0,0.,12.0,0.,12.0
1979-07-19 10:31:53.350 ,6,0,0.,12.0,0.,12.0,0.,12.0,0.,12.0
1979-07-19 10:32:05.350 ,5,0,0.,12.0,0.,12.0,0.,12.0,0.,12.0
1979-07-19 10:32:17.350 ,5,0,0.,12.0,0.,12.0,0.,12.0,0.,12.0
1979-07-19 10:32:29.350 ,5,0,0.,12.0,0.,12.0,0.,12.0,0.,12.0
1979-07-19 10:32:41.350 ,5,0,0.,12.0,0.,12.0,0.,12.0,0.,12.0
1979-07-19 10:32:53.350 ,4,0,0.,12.0,0.,12.0,0.,12.0,0.,12.0
1979-07-19 10:33:05.350 ,4,0,0.,12.0,0.,12.0,0.,12.0,0.,12.0
1979-07-19 10:33:17.350 ,4,0,0.,12.0,0.,12.0,0.,12.0,0.,12.0
1979-07-19 10:33:29.350 ,4,0,0.,12.0,0.,12.0,0.,12.0,0.,12.0
1979-07-19 10:33:41.350 ,3,0,0.,12.0,0.,12.0,0.,12.0,0.,12.0
1979-07-19 10:33:53.350 ,3,0,0.,12.0,0.,12.0,0.,12.0,0.,12.0
1979-07-19 10:34:05.350 ,3,0,0.,12.0,0.,12.0,0.,12.0,0.,12.0
1979-07-19 10:34:17.350 ,3,0,0.,12.0,0.,12.0,0.,12.0,0.,12.0
1979-07-19 10:34:29.350 ,2,0,0.,12.0,0.,12.0,0.,12.0,0.,12.0
1979-07-19 10:34:41.350 ,2,0,0.,12.0,0.,12.0,0.,12.0,0.,12.0
1979-07-19 10:34:53.350 ,2,0,0.,12.0,0.,12.0,0.,12.0,0.,12.0
1979-07-19 10:35:05.350 ,2,0,0.,12.0,0.,12.0,0.,12.0,0.,12.0
1979-07-19 10:35:17.350 ,1,0,1.,12.0,0.,12.0,0.,12.0,0.,12.0
1979-07-19 10:35:29.350 ,1,0,0.,12.0,0.,12.0,0.,12.0,0.,12.0
1979-07-19 10:35:41.350 ,1,0,0.,12.0,0.,12.0,0.,12.0,0.,12.0
1979-07-19 10:35:53.350 ,1,0,0.,12.0,0.,12.0,0.,12.0,0.,12.0
1979-07-19 10:36:05.350 ,0,0,0.,12.0,0.,12.0,0.,12.0,0.,12.0
1979-07-19 10:36:17.350 ,0,0,0.,12.0,0.,12.0,0.,12.0,0.,12.0
1979-07-19 10:36:29.350 ,0,0,0.,12.0,0.,12.0,0.,12.0,0.,12.0
1979-07-19 10:36:41.350 ,0,0,0.,12.0,0.,12.0,0.,12.0,0.,12.0
1979-07-19 10:36:53.350 ,0,0,0.,12.0,0.,12.0,0.,12.0,0.,12.0
1979-07-19 10:37:05.350 ,0,0,0.,12.0,0.,12.0,0.,12.0,0.,12.0
1979-07-19 10:37:17.350 ,0,0,0.,12.0,0.,12.0,0.,12.0,0.,12.0
1979-07-19 10:37:29.350 ,0,0,0.,12.0,0.,12.0,0.,12.0,0.,12.0
1979-07-19 10:37:41.350 ,1,0,0.,12.0,0.,12.0,0.,12.0,0.,12.0
1979-07-19 10:37:53.350 ,1,0,0.,12.0,0.,12.0,0.,12.0,0.,12.0
1979-07-19 10:38:05.350 ,1,0,0.,12.0,0.,12.0,0.,12.0,0.,12.0
1979-07-19 10:38:17.350 ,1,0,0.,12.0,0.,12.0,0.,12.0,0.,12.0
1979-07-19 10:38:29.350 ,2,0,0.,12.0,0.,12.0,0.,12.0,0.,12.0
1979-07-19 10:38:41.350 ,2,0,0.,12.0,0.,12.0,0.,12.0,0.,12.0
1979-07-19 10:38:53.350 ,2,0,0.,12.0,0.,12.0,0.,12.0,0.,12.0
1979-07-19 10:39:05.350 ,2,0,0.,12.0,0.,12.0,0.,12.0,0.,12.0
1979-07-19 10:39:17.350 ,3,0,0.,12.0,0.,12.0,0.,12.0,0.,12.0
1979-07-19 10:39:29.350 ,3,0,0.,12.0,0.,12.0,0.,12.0,0.,12.0
1979-07-19 10:39:41.350 ,3,0,0.,12.0,0.,12.0,0.,12.0,0.,12.0
1979-07-19 10:39:53.350 ,3,0,0.,12.0,0.,12.0,0.,12.0,0.,12.0
1979-07-19 10:40:05.350 ,4,0,0.,12.0,0.,12.0,0.,12.0,0.,12.0
1979-07-19 10:40:17.350 ,4,0,0.,12.0,0.,12.0,0.,12.0,0.,12.0
1979-07-19 10:40:29.350 ,4,0,0.,12.0,0.,12.0,0.,12.0,0.,12.0
1979-07-19 10:40:41.350 ,4,0,0.,12.0,0.,12.0,0.,12.0,0.,12.0
1979-07-19 10:40:53.350 ,5,0,0.,12.0,0.,12.0,0.,12.0,0.,12.0
1979-07-19 10:41:05.350 ,5,0,0.,12.0,0.,12.0,0.,12.0,0.,12.0
1979-07-19 10:41:17.350 ,5,0,0.,12.0,0.,12.0,0.,12.0,0.,12.0
1979-07-19 10:41:29.350 ,5,0,0.,12.0,0.,12.0,0.,12.0,0.,12.0
1979-07-19 10:41:41.350 ,6,0,0.,12.0,0.,12.0,0.,12.0,0.,12.0
1979-07-19 10:41:53.350 ,6,0,0.,12.0,0.,12.0,0.,12.0,0.,12.0
1979-07-19 10:42:05.350 ,6,0,0.,12.0,0.,12.0,0.,12.0,0.,12.0
1979-07-19 10:42:17.350 ,6,0,0.,12.0,0.,12.0,0.,12.0,0.,12.0
1979-07-19 10:42:29.350 ,7,0,0.,12.0,0.,12.0,0.,12.0,0.,12.0
1979-07-19 10:42:41.350 ,7,0,0.,12.0,0.,12.0,0.,12.0,0.,12.0
1979-07-19 10:42:53.350 ,7,0,0.,12.0,0.,12.0,0.,12.0,0.,12.0
1979-07-19 10:43:05.350 ,7,0,0.,12.0,0.,12.0,0.,12.0,0.,12.0
1979-07-19 10:43:17.350 ,3,1,0.,12.0,0.,12.0,0.,12.0,0.,12.0
1979-07-19 10:43:29.350 ,3,1,0.,12.0,0.,12.0,0.,12.0,0.,12.0
1979-07-19 10:43:41.350 ,0,1,0.,12.0,0.,12.0,0.,12.0,0.,12.0
1979-07-19 10:43:53.350 ,0,1,0.,12.0,0.,12.0,0.,12.0,0.,12.0
1979-07-19 10:44:05.350 ,4,1,0.,12.0,0.,12.0,0.,12.0,0.,12.0
1979-07-19 10:44:17.350 ,4,1,0.,12.0,0.,12.0,0.,12.0,0.,12.0
1979-07-19 10:44:29.350 ,7,1,0.,12.0,0.,12.0,0.,12.0,0.,12.0
1979-07-19 10:44:41.350 ,7,1,0.,12.0,0.,12.0,0.,12.0,0.,12.0